AB5KT-1 Weather Reports


time (UTC)temp
C
wind
direction
speed
KPH
gust
KPH
rain 1hr
cm
rain 24hr
cm
rain mn
cm
humidity
%
barometer
mb
20260510190925 31 127 6.4 14.5 0.00 0.00 0.00 55 1013.3
20260510190921 32 51 6.4 14.5 0.00 0.00 0.00 55 1013.2
20260510185921 31 113 6.4 19.3 0.00 0.00 0.00 58 1013.4
20260510185424 31 40 6.4 20.9 0.00 0.00 0.00 56 1013.4
20260510185420 31 19 8.0 20.9 0.00 0.00 0.00 56 1013.4
20260510184421 31 89 8.0 20.9 0.00 0.00 0.00 58 1013.6
20260510183920 30 97 9.7 20.9 0.00 0.00 0.00 58 1013.6
20260510183425 31 106 6.4 16.1 0.00 0.00 0.00 59 1013.7
20260510183421 31 28 6.4 16.1 0.00 0.00 0.00 56 1013.6
20260510182425 31 34 8.0 19.3 0.00 0.00 0.00 58 1014.0
20260510182421 31 90 8.0 19.3 0.00 0.00 0.00 59 1013.8
20260510181421 31 107 6.4 17.7 0.00 0.00 0.00 57 1014.1
20260510180920 31 121 4.8 17.7 0.00 0.00 0.00 58 1014.1
20260510180420 31 130 6.4 17.7 0.00 0.00 0.00 58 1014.1
20260510175921 31 111 6.4 17.7 0.00 0.00 0.00 58 1014.1
20260510175421 31 77 4.8 17.7 0.00 0.00 0.00 59 1014.2
20260510174921 31 107 4.8 16.1 0.00 0.00 0.00 59 1014.3
20260510174424 31 104 6.4 20.9 0.00 0.00 0.00 60 1014.3
20260510174420 31 90 6.4 20.9 0.00 0.00 0.00 59 1014.3
20260510173418 31 30 4.8 16.1 0.00 0.00 0.00 61 1014.2
20260510172919 30 28 4.8 14.5 0.00 0.00 0.00 60 1014.2
20260510172419 30 89 6.4 14.5 0.00 0.00 0.00 61 1014.3
20260510171918 30 80 8.0 17.7 0.00 0.00 0.00 62 1014.2
20260510171422 30 90 4.8 16.1 0.00 0.00 0.00 61 1014.2
20260510171418 30 18 8.0 17.7 0.00 0.00 0.00 62 1014.1
20260510170418 30 117 4.8 17.7 0.00 0.00 0.00 62 1014.2
20260510165919 30 108 4.8 17.7 0.00 0.00 0.00 60 1014.2
20260510165418 30 140 4.8 12.9 0.00 0.00 0.00 61 1014.2
20260510164919 30 136 4.8 12.9 0.00 0.00 0.00 62 1014.0
20260510164423 30 108 4.8 12.9 0.00 0.00 0.00 62 1014.0
20260510164418 30 153 4.8 12.9 0.00 0.00 0.00 62 1014.0
20260510163417 30 59 4.8 12.9 0.00 0.00 0.00 62 1013.9
20260510162916 30 163 4.8 17.7 0.00 0.00 0.00 61 1013.9
20260510162417 30 113 4.8 17.7 0.00 0.00 0.00 61 1014.0
20260510161922 29 136 3.2 9.7 0.00 0.00 0.00 65 1013.9
20260510161918 29 79 3.2 12.9 0.00 0.00 0.00 63 1013.9
20260510160920 29 193 4.8 11.3 0.00 0.00 0.00 65 1013.8
20260510160916 28 123 4.8 9.7 0.00 0.00 0.00 65 1013.8
20260510155920 28 113 3.2 11.3 0.00 0.00 0.00 66 1013.8
20260510155916 28 132 4.8 11.3 0.00 0.00 0.00 65 1013.9
20260510155519 28 126 3.2 9.7 0.00 0.00 0.00 67 1013.7
20260510155019 27 120 1.6 9.7 0.00 0.00 0.00 69 1013.7
20260510153915 27 115 3.2 9.7 0.00 0.00 0.00 70 1013.7
20260510153418 27 157 3.2 14.5 0.00 0.00 0.00 70 1013.6
20260510153414 27 157 4.8 11.3 0.00 0.00 0.00 71 1013.6
20260510152415 27 161 3.2 14.5 0.00 0.00 0.00 70 1013.5
20260510151915 26 184 3.2 8.0 0.00 0.00 0.00 72 1013.5
20260510151414 26 151 3.2 8.0 0.00 0.00 0.00 72 1013.4
20260510150915 26 146 3.2 11.3 0.00 0.00 0.00 74 1013.5
20260510150419 26 138 4.8 11.3 0.00 0.00 0.00 73 1013.4
20260510150414 26 162 4.8 11.3 0.00 0.00 0.00 74 1013.5
20260510150019 26 165 3.2 11.3 0.00 0.00 0.00 74 1013.4
20260510145519 25 155 3.2 9.7 0.00 0.00 0.00 76 1013.3
20260510144416 25 164 6.4 11.3 0.00 0.00 0.00 77 1013.3
20260510144412 25 152 4.8 11.3 0.00 0.00 0.00 76 1013.3
20260510143413 25 190 6.4 12.9 0.00 0.00 0.00 78 1013.2
20260510142912 25 164 6.4 12.9 0.00 0.00 0.00 78 1013.2
20260510142413 24 164 4.8 9.7 0.00 0.00 0.00 78 1013.2
20260510141910 24 149 4.8 12.9 0.00 0.00 0.00 79 1013.2
20260510141411 24 118 4.8 12.9 0.00 0.00 0.00 79 1013.2
20260510140915 23 200 4.8 9.7 0.00 0.00 0.00 79 1013.1
20260510140910 24 200 4.8 11.3 0.00 0.00 0.00 79 1013.2
20260510135909 23 248 4.8 9.7 0.00 0.00 0.00 79 1013.2
20260510135409 23 200 3.2 8.0 0.00 0.00 0.00 79 1013.2
20260510134907 23 180 1.6 8.0 0.00 0.00 0.00 79 1013.2
20260510134406 23 160 1.6 6.4 0.00 0.00 0.00 78 1013.2
20260510133907 23 138 0.0 1.6 0.00 0.00 0.00 79 1013.1
20260510133407 23 150 0.0 1.6 0.00 0.00 0.00 80 1013.1
20260510132907 23 150 0.0 3.2 0.00 0.00 0.00 81 1013.1
20260510132408 22 150 0.0 6.4 0.00 0.00 0.00 81 1012.9
20260510131906 22 150 0.0 6.4 0.00 0.00 0.00 81 1012.9
20260510131405 22 127 0.0 3.2 0.00 0.00 0.00 81 1012.9
20260510130905 22 223 0.0 3.2 0.00 0.00 0.00 81 1012.8
20260510130405 22 128 0.0 1.6 0.00 0.00 0.00 82 1012.7
20260510125905 21 129 0.0 1.6 0.00 0.00 0.00 83 1012.7
20260510125405 21 128 0.0 1.6 0.00 0.00 0.00 84 1012.6
20260510124904 21 129 0.0 1.6 0.00 0.00 0.00 85 1012.5
20260510124405 20 128 0.0 1.6 0.00 0.00 0.00 86 1012.5
20260510123903 20 128 0.0 1.6 0.00 0.00 0.00 87 1012.5
20260510123400 20 128 0.0 1.6 0.00 0.00 0.00 87 1012.5
20260510122900 20 129 0.0 1.6 0.00 0.00 0.00 86 1012.6
20260510122400 20 128 0.0 0.0 0.00 0.00 0.00 86 1012.5
20260510121900 20 128 0.0 0.0 0.00 0.00 0.00 86 1012.4
20260510121401 20 129 0.0 0.0 0.00 0.00 0.00 86 1012.4
20260510120900 20 129 0.0 0.0 0.00 0.00 0.00 86 1012.4
20260510120400 20 129 0.0 1.6 0.00 0.00 0.00 85 1012.4
20260510115902 20 128 0.0 1.6 0.00 0.00 0.00 85 1012.3
20260510115858 20 129 0.0 3.2 0.00 0.00 0.00 85 1012.3
20260510114858 20 129 0.0 3.2 0.00 0.00 0.00 85 1012.2
20260510114402 20 128 0.0 1.6 0.00 0.00 0.00 84 1012.3
20260510114358 20 128 0.0 1.6 0.00 0.00 0.00 84 1012.3
20260510114003 20 129 0.0 1.6 0.00 0.00 0.00 84 1012.3
20260510112858 20 129 0.0 1.6 0.00 0.00 0.00 83 1012.3
20260510112358 20 128 0.0 3.2 0.00 0.00 0.00 83 1012.2
20260510111858 20 129 0.0 3.2 0.00 0.00 0.00 83 1012.2
20260510111358 20 130 0.0 3.2 0.00 0.00 0.00 83 1012.2
20260510110858 20 133 0.0 3.2 0.00 0.00 0.00 83 1012.2
20260510110356 20 134 0.0 3.2 0.00 0.00 0.00 82 1012.3
20260510105900 20 133 0.0 1.6 0.00 0.00 0.00 82 1012.3
20260510105856 20 133 0.0 1.6 0.00 0.00 0.00 82 1012.3
20260510104901 20 133 0.0 1.6 0.00 0.00 0.00 82 1012.3
20260510104857 20 134 0.0 1.6 0.00 0.00 0.00 82 1012.3
20260510103857 20 134 0.0 3.2 0.00 0.00 0.00 82 1012.3
20260510103356 20 134 0.0 3.2 0.00 0.00 0.00 82 1012.3
20260510102856 20 134 0.0 1.6 0.00 0.00 0.00 82 1012.3
20260510102357 20 134 0.0 1.6 0.00 0.00 0.00 82 1012.3
20260510101855 20 134 0.0 1.6 0.00 0.00 0.00 82 1012.3
20260510101354 20 134 0.0 0.0 0.00 0.00 0.00 81 1012.3
20260510100854 20 133 0.0 3.2 0.00 0.00 0.00 81 1012.3
20260510100354 20 134 0.0 3.2 0.00 0.00 0.00 81 1012.3
20260510095854 21 134 0.0 1.6 0.00 0.00 0.00 81 1012.2
20260510095354 21 134 0.0 1.6 0.00 0.00 0.00 80 1012.2
20260510094854 21 134 1.6 3.2 0.00 0.00 0.00 80 1012.1
20260510094354 21 134 1.6 3.2 0.00 0.00 0.00 80 1012.3
20260510093854 21 134 0.0 1.6 0.00 0.00 0.00 80 1012.1
20260510093354 21 134 0.0 1.6 0.00 0.00 0.00 80 1012.1
20260510092854 21 134 0.0 1.6 0.00 0.00 0.00 80 1012.0
20260510092352 21 134 0.0 3.2 0.00 0.00 0.00 80 1011.8
20260510091852 21 134 0.0 3.2 0.00 0.00 0.00 80 1011.7
20260510091353 21 134 0.0 3.2 0.00 0.00 0.00 80 1011.7
20260510090852 21 160 0.0 3.2 0.00 0.00 0.00 80 1011.7
20260510090350 21 160 0.0 3.2 0.00 0.00 0.00 80 1012.0
20260510085855 21 160 0.0 0.0 0.00 0.00 0.00 80 1011.8
20260510085851 21 160 0.0 0.0 0.00 0.00 0.00 80 1012.0
20260510085407 21 160 0.0 0.0 0.00 0.00 0.00 79 1011.7
20260510084348 21 160 0.0 1.6 0.00 0.00 0.00 79 1011.7
20260510083848 21 160 0.0 1.6 0.00 0.00 0.00 79 1011.8
20260510083348 21 160 0.0 0.0 0.00 0.00 0.00 79 1011.7
20260510082846 21 160 0.0 0.0 0.00 0.00 0.00 78 1011.7
20260510082344 22 160 0.0 0.0 0.00 0.00 0.00 78 1011.8
20260510081844 22 160 0.0 0.0 0.00 0.00 0.00 78 1011.8
20260510081345 22 160 0.0 0.0 0.00 0.00 0.00 78 1011.8
20260510080844 22 160 0.0 0.0 0.00 0.00 0.00 77 1011.7
20260510080345 22 160 0.0 0.0 0.00 0.00 0.00 77 1011.7
20260510075844 22 160 0.0 0.0 0.00 0.00 0.00 77 1011.6
20260510075348 22 160 0.0 1.6 0.00 0.00 0.00 76 1011.5
20260510075344 22 160 0.0 1.6 0.00 0.00 0.00 77 1011.6
20260510074342 22 160 0.0 0.0 0.00 0.00 0.00 76 1011.5
20260510073847 23 160 0.0 1.6 0.00 0.00 0.00 75 1011.6
20260510073843 22 160 0.0 1.6 0.00 0.00 0.00 75 1011.5
20260510072843 23 160 0.0 6.4 0.00 0.00 0.00 75 1011.6
20260510072342 23 160 1.6 6.4 0.00 0.00 0.00 75 1011.7
20260510071842 23 159 1.6 6.4 0.00 0.00 0.00 75 1011.7
20260510071342 23 167 1.6 8.0 0.00 0.00 0.00 75 1011.8
20260510070841 23 174 1.6 8.0 0.00 0.00 0.00 75 1011.7
20260510070448 23 153 1.6 6.4 0.00 0.00 0.00 74 1011.7
20260510070346 23 154 1.6 6.4 0.00 0.00 0.00 74 1011.7
20260510070342 23 145 0.0 6.4 0.00 0.00 0.00 74 1011.8
20260510064844 23 158 0.0 3.2 0.00 0.00 0.00 74 1011.7
20260510064840 23 135 1.6 8.0 0.00 0.00 0.00 74 1011.8
20260510063838 23 122 1.6 8.0 0.00 0.00 0.00 74 1012.0
20260510063342 23 119 1.6 8.0 0.00 0.00 0.00 74 1012.0
20260510063338 23 115 0.0 3.2 0.00 0.00 0.00 74 1011.8
20260510062337 23 205 1.6 8.0 0.00 0.00 0.00 73 1012.0
20260510061841 24 141 1.6 6.4 0.00 0.00 0.00 73 1012.0
20260510061837 24 125 1.6 6.4 0.00 0.00 0.00 73 1012.0
20260510060836 24 121 1.6 6.4 0.00 0.00 0.00 73 1012.0
20260510060336 24 132 1.6 6.4 0.00 0.00 0.00 73 1012.0
20260510055836 24 140 1.6 8.0 0.00 0.00 0.00 73 1012.0
20260510055337 24 129 1.6 9.7 0.00 0.00 0.00 73 1012.0
20260510054836 24 117 1.6 9.7 0.00 0.00 0.00 72 1011.8
20260510054336 25 126 1.6 9.7 0.00 0.00 0.00 72 1011.8
20260510053834 25 130 1.6 9.7 0.00 0.00 0.00 72 1011.6
20260510053334 25 150 3.2 12.9 0.00 0.00 0.00 72 1011.5
20260510052835 25 148 4.8 12.9 0.00 0.00 0.00 72 1011.4
20260510052332 25 137 4.8 9.7 0.00 0.00 0.00 71 1011.3
20260510051833 25 171 4.8 12.9 0.00 0.00 0.00 71 1011.3
20260510051336 25 166 1.6 9.7 0.00 0.00 0.00 71 1011.3
20260510051332 25 142 3.2 12.9 0.00 0.00 0.00 71 1011.3
20260510050332 25 162 1.6 11.3 0.00 0.00 0.00 71 1011.3
20260510050328 25 128 3.2 11.3 0.00 0.00 0.03 70 1011.3
20260510045329 25 111 3.2 11.3 0.00 0.00 0.03 69 1011.2
20260510045325 26 123 3.2 11.3 0.00 0.00 0.03 69 1011.2
20260510044324 26 130 3.2 12.9 0.00 0.00 0.03 69 1011.1
20260510043823 26 143 3.2 12.9 0.00 0.00 0.03 68 1011.2
20260510043325 26 120 1.6 11.3 0.00 0.00 0.03 67 1011.1
20260510043321 26 113 1.6 11.3 0.00 0.00 0.03 67 1011.1
20260510042320 26 107 1.6 9.7 0.00 0.00 0.03 66 1011.1
20260510041824 26 137 1.6 9.7 0.00 0.00 0.03 66 1011.1
20260510041820 26 126 0.0 3.2 0.00 0.00 0.03 66 1011.0
20260510040819 26 130 1.6 6.4 0.00 0.00 0.03 65 1011.0
20260510040318 26 130 1.6 6.4 0.00 0.00 0.03 65 1010.9
20260510035818 26 151 1.6 6.4 0.00 0.00 0.03 65 1010.9
20260510035318 26 117 1.6 6.4 0.00 0.00 0.03 65 1010.9
20260510034818 27 127 1.6 6.4 0.00 0.00 0.03 65 1010.9
20260510034319 27 120 1.6 9.7 0.00 0.00 0.03 65 1010.8
20260510034315 27 114 1.6 6.4 0.00 0.00 0.03 64 1010.8
20260510033918 27 123 1.6 9.7 0.00 0.00 0.03 64 1010.8
20260510032810 27 111 0.0 6.4 0.00 0.00 0.03 64 1010.8
20260510032310 27 109 0.0 6.4 0.00 0.00 0.03 64 1010.7
20260510031811 27 111 0.0 4.8 0.00 0.00 0.03 64 1010.7
20260510031310 27 111 0.0 4.8 0.00 0.00 0.03 63 1010.6
20260510030808 27 148 1.6 4.8 0.00 0.00 0.03 63 1010.6
20260510030309 27 144 1.6 6.4 0.00 0.00 0.03 62 1010.4
20260510025806 27 144 1.6 6.4 0.00 0.00 0.03 62 1010.5
20260510025306 27 123 1.6 8.0 0.00 0.00 0.03 62 1010.5
20260510024808 27 119 1.6 8.0 0.00 0.00 0.03 63 1010.4
20260510024804 27 107 1.6 8.0 0.00 0.00 0.03 62 1010.4
20260510023804 27 126 1.6 8.0 0.00 0.00 0.03 63 1010.3
20260510023304 28 141 1.6 14.5 0.00 0.00 0.03 62 1010.2
20260510022805 28 114 1.6 14.5 0.00 0.00 0.03 62 1010.2
20260510022308 28 115 1.6 8.0 0.00 0.00 0.03 62 1010.1
20260510022306 28 96 1.6 8.0 0.00 0.00 0.03 62 1010.1
20260510021308 28 126 1.6 9.7 0.00 0.00 0.03 62 1009.9
20260510021304 28 118 1.6 8.0 0.00 0.00 0.03 62 1010.0
20260510020304 28 122 1.6 9.7 0.00 0.00 0.03 61 1009.8
20260510015803 28 130 1.6 6.4 0.00 0.00 0.03 61 1009.8
20260510015306 28 135 1.6 6.4 0.00 0.00 0.03 60 1009.7
20260510014803 28 135 0.0 3.2 0.00 0.00 0.03 59 1009.6
20260510014303 28 135 0.0 1.6 0.00 0.00 0.03 58 1009.5
20260510013802 29 135 0.0 3.2 0.00 0.00 0.03 58 1009.4
20260510013303 29 135 0.0 3.2 0.00 0.00 0.03 57 1009.2
20260510012803 29 135 0.0 3.2 0.00 0.00 0.03 57 1009.2
20260510012306 30 135 0.0 6.4 0.00 0.00 0.03 56 1009.1
20260510011803 30 135 1.6 8.0 0.00 0.00 0.03 55 1009.1
20260510011303 30 134 1.6 8.0 0.00 0.00 0.03 55 1009.0
20260510010806 31 138 1.6 8.0 0.00 0.00 0.03 53 1008.8
20260510010802 30 136 0.0 8.0 0.00 0.00 0.03 54 1008.9
20260510005802 31 143 3.2 8.0 0.00 0.00 0.03 53 1008.8
20260510005307 31 212 4.8 14.5 0.00 0.00 0.03 53 1008.7
20260510004303 31 208 4.8 14.5 0.00 0.00 0.03 52 1008.6
20260510003803 31 88 4.8 11.3 0.00 0.00 0.03 53 1008.4
20260510003302 31 145 4.8 11.3 0.00 0.00 0.03 53 1008.3
20260510002802 32 160 4.8 11.3 0.00 0.00 0.03 52 1008.3
20260510002307 32 163 4.8 16.1 0.00 0.00 0.03 51 1008.3
20260510002301 32 148 4.8 12.9 0.00 0.00 0.03 52 1008.2
20260510001301 32 148 6.4 16.1 0.00 0.00 0.03 51 1008.4
20260510000801 32 168 6.4 17.7 0.00 0.00 0.03 51 1008.4
20260510000258 32 177 8.0 17.7 0.00 0.00 0.03 50 1008.4
20260509235759 33 158 8.0 14.5 0.00 0.00 0.03 49 1008.3
20260509235256 33 108 6.4 14.5 0.00 0.00 0.03 48 1008.4
20260509234757 33 154 3.2 12.9 0.00 0.00 0.03 48 1008.4
20260509234257 33 173 4.8 12.9 0.00 0.00 0.03 47 1008.6
20260509233757 33 133 4.8 12.9 0.00 0.00 0.03 47 1008.6
20260509233256 34 137 3.2 11.3 0.00 0.00 0.03 46 1008.4
20260509232757 34 198 4.8 12.9 0.00 0.00 0.03 46 1008.4
20260509232256 34 134 4.8 12.9 0.00 0.00 0.03 46 1008.4
20260509231756 35 155 3.2 11.3 0.00 0.00 0.03 44 1008.4
20260509231301 35 167 1.6 8.0 0.00 0.00 0.03 45 1008.4
20260509231257 35 122 1.6 8.0 0.00 0.00 0.03 45 1008.4
20260509230257 35 131 1.6 8.0 0.00 0.00 0.03 45 1008.3
20260509225756 34 120 3.2 14.5 0.00 0.00 0.03 45 1008.4
20260509225257 34 124 3.2 14.5 0.00 0.00 0.03 47 1008.4
20260509224756 34 194 3.2 8.0 0.00 0.00 0.03 45 1008.3
20260509224257 33 106 3.2 8.0 0.00 0.00 0.03 47 1008.4
20260509223757 33 194 3.2 9.7 0.00 0.00 0.03 47 1008.4
20260509223255 33 215 1.6 9.7 0.00 0.00 0.03 49 1008.3
20260509222755 33 171 1.6 8.0 0.00 0.00 0.03 48 1008.4
20260509222252 33 270 1.6 8.0 0.00 0.00 0.03 46 1008.4
20260509221753 33 225 1.6 8.0 0.00 0.00 0.03 46 1008.4
20260509221253 33 146 1.6 6.4 0.00 0.00 0.03 45 1008.4
20260509220756 33 153 3.2 11.3 0.00 0.00 0.03 49 1008.6
20260509220752 33 221 0.0 11.3 0.00 0.00 0.03 47 1008.4
20260509215753 33 153 4.8 11.3 0.00 0.00 0.03 48 1008.6
20260509215253 33 161 3.2 11.3 0.00 0.00 0.03 49 1008.4
20260509214753 33 157 3.2 9.7 0.00 0.00 0.03 50 1008.4
20260509214252 33 140 3.2 9.7 0.00 0.00 0.03 48 1008.4
20260509213753 33 245 3.2 11.3 0.00 0.00 0.03 48 1008.6
20260509213253 33 241 4.8 11.3 0.00 0.00 0.03 47 1008.7
20260509212752 33 150 3.2 11.3 0.00 0.00 0.03 49 1008.6
20260509212253 33 136 1.6 11.3 0.00 0.00 0.03 49 1008.7
20260509211753 33 143 3.2 11.3 0.00 0.00 0.03 48 1008.8
20260509211252 32 210 3.2 9.7 0.00 0.00 0.03 50 1008.8
20260509210753 32 259 3.2 9.7 0.00 0.00 0.03 49 1008.9
20260509210253 32 134 3.2 14.5 0.00 0.00 0.03 49 1009.0
20260509205752 32 233 4.8 14.5 0.00 0.00 0.03 48 1009.1
20260509205253 32 252 6.4 17.7 0.00 0.00 0.03 50 1009.1
20260509204753 32 277 4.8 17.7 0.00 0.00 0.03 50 1009.1
20260509204253 32 145 3.2 9.7 0.00 0.00 0.03 53 1009.2
20260509203753 32 202 3.2 9.7 0.00 0.00 0.03 55 1009.4
20260509203252 32 173 3.2 11.3 0.00 0.00 0.03 53 1009.6
20260509202751 32 242 6.4 14.5 0.00 0.00 0.03 53 1009.6
20260509202251 32 217 4.8 14.5 0.00 0.00 0.03 53 1009.7
20260509201751 32 246 6.4 17.7 0.00 0.00 0.03 53 1009.8
20260509201253 32 203 4.8 14.5 0.00 0.00 0.03 52 1009.9
20260509201249 31 193 6.4 17.7 0.00 0.00 0.03 54 1009.9
20260509200247 31 163 3.2 14.5 0.00 0.00 0.03 57 1010.0
20260509195751 31 240 3.2 11.3 0.00 0.00 0.03 61 1010.2
20260509195747 31 235 3.2 11.3 0.00 0.00 0.03 56 1010.1
20260509194747 31 259 3.2 11.3 0.00 0.00 0.03 58 1010.2
20260509194246 31 254 4.8 11.3 0.00 0.00 0.03 57 1010.4
20260509193745 31 151 4.8 12.9 0.00 0.00 0.03 57 1010.5
20260509193246 31 126 6.4 12.9 0.00 0.00 0.03 58 1010.5
20260509192745 31 157 4.8 12.9 0.00 0.00 0.03 58 1010.6
20260509192243 31 198 3.2 11.3 0.00 0.00 0.03 61 1010.6
20260509191743 30 211 4.8 14.5 0.00 0.00 0.03 62 1010.7
20260509191242 30 248 6.4 14.5 0.00 0.00 0.03 62 1010.7